[[{"header":{"parameterUnit":"m.s-1","parameterCategory":1,"la1":30.2991,"la2":30.254,"lo1":-89.0895,"lo2":-89.0444,"dy":0.0017,"dx":0.0017,"nx":28,"ny":28,"refTime":"2023-09-19T21:00:00:Z","depth":0,"parameterNumber":2,"parameterNumberName":"U-component_of_WINDS"},"data":[0,0,0,0,0,0,0,0,0,0,0,0,0,0,0,0,0,0,0,0,0,0,0,0,0,0,0,0,0,0,0,0,0,0,0,0,0,0,0,0,0,0,0,0,0,0,0,0,0,0,0,0,0,0,0,0,0,0,-4.1598,-4.1599,0,-4.1633,-4.1633,-4.1634,-4.156,-4.1558,-4.1556,-4.1553,-4.1586,-4.1589,-4.1592,0,0,0,0,0,0,0,0,0,0,0,0,0,-4.1465,-4.1467,-4.1598,-4.1599,-4.1599,-4.1633,-4.1633,-4.1634,-4.1561,-4.1558,-4.1555,-4.1552,-4.1585,-4.1589,-4.1592,0,0,0,0,0,0,0,0,0,0,0,0,0,-4.1513,-4.1468,-4.1598,-4.1567,-4.1564,-4.1633,-4.1634,-4.1634,-4.1561,-4.1558,-4.1554,-4.1551,-4.1584,-4.1588,-4.1593,-4.1692,0,0,-4.1607,-4.1609,0,0,0,0,0,0,0,0,-4.1511,-4.1518,-4.1571,-4.1569,-4.1567,-4.1589,-4.1598,-4.1654,-4.1562,-4.1563,-4.1553,-4.1549,-4.159,-4.1594,-4.1608,-4.1694,-4.1695,-4.1607,-4.161,-4.1612,-4.1613,0,0,0,0,0,0,0,-4.1507,-4.1516,-4.1612,-4.1572,-4.1569,-4.155,-4.1553,-4.1608,-4.1595,-4.1562,-4.1557,-4.1562,-4.1588,-4.1603,-4.1608,-4.1696,-4.1607,-4.1611,-4.1614,-4.1616,-4.1862,-4.1865,0,0,0,0,0,0,-4.1508,-4.1514,-4.1611,-4.1613,-4.1529,-4.1555,-4.1558,-4.1585,-4.1595,-4.1593,-4.1565,-4.1559,-4.1597,-4.1603,-4.1609,-4.1722,-4.1612,-4.1616,-4.1619,-4.1858,-4.1862,-4.1867,0,0,0,0,0,0,-4.1506,-4.1518,-4.1609,-4.1562,-4.1572,-4.1561,-4.1592,-4.1588,-4.1603,-4.1597,-4.1594,-4.1584,-4.1595,-4.1602,-4.1671,-4.1723,-4.1618,-4.1623,-4.1853,-4.1859,-4.1865,-4.1953,0,0,0,0,0,0,-4.1502,-4.1517,-4.1556,-4.1564,-4.1575,-4.1673,-4.1595,-4.1591,-4.1612,-4.1604,-4.1614,-4.1612,-4.1593,-4.1665,-4.1676,-4.1727,-4.1626,-4.1849,-4.1856,-4.1863,-4.1945,-4.1961,-4.1974,0,0,0,0,0,-4.1498,-4.158,-4.1558,-4.157,-4.1623,-4.1676,-4.1682,-4.1659,-4.1617,-4.1654,-4.165,-4.1612,-4.1717,-4.1673,-4.1685,-4.1738,-4.1845,-4.1854,-4.1862,-4.1939,-4.1958,-4.1974,0,0,0,0,0,0,-4.1577,-4.158,-4.1556,-4.1643,-4.166,-4.1664,-4.171,-4.1681,-4.1709,-4.17,-4.1669,-4.1672,-4.1746,-4.175,-4.1701,-4.1833,-4.1773,-4.1785,-4.1827,-4.1845,-4.186,-4.1855,-4.163,0,0,0,0,0,-4.1605,-4.1649,-4.1649,-4.1725,-4.1735,-4.1722,-4.1744,-4.1725,-4.174,-4.1746,-4.1747,-4.1763,-4.1799,-4.1823,-4.1856,-4.1947,-4.1946,-4.1989,-4.2004,-4.2016,-4.2024,-4.2069,-4.2087,-4.1894,-4.1894,-4.1894,0,0,-4.1663,-4.167,-4.1699,-4.1741,-4.1752,-4.1796,-4.1728,-4.1778,-4.1809,-4.1754,-4.1818,-4.182,-4.1835,-4.1914,-4.1949,-4.1919,-4.2078,-4.2026,-4.2036,-4.2038,-4.2079,-4.2097,-4.2113,-4.19,-4.1899,-4.1898,0,0,-4.1788,-4.18,-4.1863,-4.1875,-4.1893,-4.1883,-4.1899,-4.1907,-4.1905,-4.197,-4.1928,-4.1966,-4.203,-4.2041,-4.2055,-4.2186,-4.215,-4.2198,-4.2271,-4.2315,-4.233,-4.2343,-4.2385,-4.2401,-4.2207,-4.2208,-4.2208,0,-4.1857,-4.1922,-4.1899,-4.1951,-4.197,-4.1923,-4.1985,-4.1998,-4.2025,-4.2038,-4.2005,-4.2082,-4.209,-4.2169,-4.2201,-4.2216,-4.223,-4.2194,-4.233,-4.2343,-4.2355,-4.2395,-4.2411,-4.2213,-4.2212,-4.2212,-4.2211,0,-4.2003,-4.205,-4.2099,-4.2126,-4.215,-4.2208,-4.2191,-4.2219,-4.2198,-4.2192,-4.2257,-4.2265,-4.2297,-4.2315,-4.2296,-4.2392,-4.2372,-4.2336,-4.2274,-4.2379,-4.2415,-4.2431,-4.222,-4.2218,-4.2217,-4.2216,0,0,-4.2177,-4.2191,-4.2209,-4.2219,-4.2235,-4.227,-4.2325,-4.2357,-4.2379,-4.24,-4.2442,-4.2498,-4.2463,-4.248,-4.2461,-4.25,-4.2598,-4.2458,-4.2458,-4.248,-4.2699,-4.2723,-4.2742,-4.2577,-4.258,-4.2582,-4.2696,0,-4.2298,-4.2392,-4.2372,-4.2463,-4.2503,-4.246,-4.2507,-4.2521,-4.2517,-4.255,-4.2545,-4.2583,-4.2537,-4.2546,-4.2583,-4.2578,-4.2641,-4.2571,-4.2612,-4.2614,-4.2605,-4.2761,-4.2787,-4.2895,-4.2711,-4.2714,-4.2716,0,-4.2451,-4.2477,-4.2572,-4.2579,-4.2596,-4.2638,-4.2665,-4.2698,-4.2712,-4.2706,-4.2725,-4.2699,-4.275,-4.2692,-4.2761,-4.2714,-4.2731,-4.2731,-4.2735,-4.2733,-4.2668,-4.276,-4.2929,-4.2943,-4.2739,-4.2737,-4.2735,0,-4.2562,-4.2622,-4.2685,-4.2697,-4.2708,-4.2738,-4.2744,-4.2755,-4.2775,-4.2799,-4.2811,-4.2841,-4.2856,-4.2879,-4.2861,-4.2821,-4.2931,-4.2873,-4.2925,-4.2925,-4.2946,-4.2944,-4.3115,-4.2966,-4.2965,-4.2965,-4.2965,0,-4.2697,-4.2755,-4.2735,-4.2774,-4.2837,-4.2815,-4.2878,-4.2879,-4.2889,-4.2926,-4.2892,-4.2927,-4.2903,-4.2935,-4.2922,-4.2979,-4.2987,-4.2982,-4.2976,-4.2982,-4.2982,-4.2989,-4.2979,-4.2969,-4.2968,-4.2967,-4.2967,0,-4.283,-4.2819,-4.2885,-4.289,-4.2893,-4.2939,-4.2943,-4.2978,-4.2972,-4.3019,-4.3028,-4.3019,-4.3055,-4.304,-4.3079,-4.307,-4.3142,-4.3129,-4.3136,-4.3131,-4.3183,-4.3176,-4.336,-4.3381,-4.3223,-4.3224,-4.3225,0,-4.2913,-4.2957,-4.2968,-4.299,-4.2998,-4.3035,-4.3055,-4.3035,-4.3057,-4.3076,-4.3108,-4.3142,-4.3167,-4.3227,-4.3222,-4.3251,-4.3236,-4.3299,-4.324,-4.3243,-4.3231,-4.3226,-4.3229,-4.3308,-4.331,-4.3312,-4.3313,0,-4.3062,-4.3054,-4.3085,-4.3113,-4.3138,-4.316,-4.3178,-4.3198,-4.3179,-4.3205,-4.3242,-4.3262,-4.3301,-4.3334,-4.3359,-4.3364,-4.3334,-4.3333,-4.3345,-4.3348,-4.3349,-4.3345,-4.3163,-4.3327,-4.3326,-4.3325,-4.3324,-4.3323,-4.3169,-4.3205,-4.3217,-4.3251,-4.3263,-4.3281,-4.3313,-4.3312,-4.3342,-4.3372,-4.3359,-4.3401,-4.3413,-4.3444,-4.3453,-4.3484,-4.3459,-4.3479,-4.3483,-4.3487,-4.3491,-4.3348,-4.3489,-4.3489,-4.3489,-4.3488,-4.3488,0,-4.3311,-4.3317,-4.335,-4.3376,-4.3403,-4.3375,-4.3394,-4.3417,-4.3455,-4.3469,-4.3494,-4.3536,-4.3567,-4.3566,-4.3594,-4.3619,-4.3606,-4.3627,-4.3622,-4.3623,-4.3514,-4.3498,-4.3637,-4.3637,-4.3637,-4.3637,-4.3637,-4.3637,-4.3388,-4.3445,-4.344,-4.3502,-4.3507,-4.3548,-4.356,-4.3576,-4.3586,-4.3634,-4.366,-4.3659,-4.3666,-4.3695,-4.3722,-4.3721,-4.373,-4.3756,-4.3749,-4.3646,-4.3631,-4.3617,-4.3601,-4.3759,-4.3759,-4.3854,-4.3855,-4.3856]},{"header":{"parameterUnit":"m.s-1","parameterCategory":1,"la1":30.2991,"la2":30.254,"lo1":-89.0895,"lo2":-89.0444,"dy":0.0017,"dx":0.0017,"nx":28,"ny":28,"refTime":"2023-09-19T21:00:00:Z","depth":0,"parameterNumber":3,"parameterNumberName":"V-component_of_WINDS"},"data":[0,0,0,0,0,0,0,0,0,0,0,0,0,0,0,0,0,0,0,0,0,0,0,0,0,0,0,0,0,0,0,0,0,0,0,0,0,0,0,0,0,0,0,0,0,0,0,0,0,0,0,0,0,0,0,0,0,0,0.9314,0.9314,0,0.9307,0.9306,0.9306,0.9229,0.9227,0.9225,0.9223,0.9216,0.9217,0.9219,0,0,0,0,0,0,0,0,0,0,0,0,0,0.9263,0.9265,0.9314,0.9314,0.9314,0.9307,0.9306,0.9306,0.9229,0.9227,0.9225,0.9222,0.9215,0.9217,0.9219,0,0,0,0,0,0,0,0,0,0,0,0,0,0.9274,0.9265,0.9314,0.9275,0.9271,0.9307,0.9306,0.9306,0.923,0.9227,0.9224,0.9221,0.9215,0.9217,0.9219,0.9292,0,0,0.9227,0.9228,0,0,0,0,0,0,0,0,0.9273,0.9276,0.9281,0.9277,0.9273,0.9266,0.9286,0.9302,0.9231,0.9246,0.9223,0.922,0.9235,0.9235,0.924,0.9292,0.9292,0.9227,0.9228,0.9229,0.923,0,0,0,0,0,0,0,0.9273,0.9276,0.9311,0.9281,0.9276,0.9258,0.9256,0.9288,0.9257,0.9244,0.9238,0.9238,0.9232,0.9238,0.924,0.9292,0.9227,0.9229,0.9231,0.9231,0.9404,0.9407,0,0,0,0,0,0,0.9277,0.9275,0.9311,0.9311,0.9266,0.9261,0.9259,0.9271,0.9256,0.9251,0.9241,0.9235,0.9236,0.9237,0.9239,0.9324,0.9229,0.9232,0.9233,0.9401,0.9405,0.9408,0,0,0,0,0,0,0.9276,0.9281,0.9312,0.9292,0.9294,0.9265,0.9279,0.9273,0.9278,0.9254,0.9248,0.9253,0.9233,0.9236,0.928,0.9322,0.9233,0.9235,0.9397,0.9402,0.9406,0.9493,0,0,0,0,0,0,0.9275,0.9281,0.9308,0.9293,0.9296,0.9352,0.9282,0.9274,0.9283,0.9275,0.9263,0.9258,0.9231,0.9277,0.9282,0.9324,0.9237,0.9393,0.9399,0.9405,0.9487,0.9501,0.9512,0,0,0,0,0,0.9274,0.9333,0.931,0.9315,0.9329,0.9355,0.9356,0.9324,0.9286,0.9313,0.9298,0.9259,0.9317,0.9282,0.9288,0.9331,0.939,0.9398,0.9404,0.9481,0.9498,0.9512,0,0,0,0,0,0,0.9354,0.933,0.9304,0.936,0.936,0.9342,0.9375,0.9343,0.9353,0.9345,0.9305,0.9303,0.9353,0.9346,0.9308,0.9401,0.9347,0.9356,0.9403,0.9419,0.9432,0.9432,0.9239,0,0,0,0,0,0.9378,0.9401,0.9379,0.9431,0.9432,0.9404,0.9414,0.9389,0.9388,0.9387,0.9375,0.9375,0.9393,0.9406,0.9421,0.9486,0.9482,0.9519,0.9531,0.9542,0.955,0.9584,0.96,0.9431,0.9431,0.9431,0,0,0.9428,0.9418,0.9435,0.9447,0.9444,0.9469,0.9404,0.9434,0.9452,0.9391,0.9432,0.9424,0.9421,0.9476,0.95,0.9472,0.9596,0.9551,0.956,0.9561,0.9593,0.9609,0.9623,0.9436,0.9435,0.9434,0,0,0.9531,0.9527,0.9569,0.9568,0.9564,0.9545,0.9556,0.9543,0.9535,0.9576,0.9531,0.9553,0.9585,0.9585,0.959,0.9697,0.9661,0.9703,0.977,0.9804,0.9817,0.9828,0.9866,0.988,0.9711,0.9711,0.9711,0,0.9594,0.963,0.9595,0.9627,0.9634,0.9582,0.9625,0.9625,0.9627,0.9634,0.9603,0.9643,0.9638,0.9692,0.9718,0.9724,0.9735,0.9703,0.9818,0.9829,0.9839,0.9875,0.9889,0.9716,0.9715,0.9715,0.9714,0,0.9707,0.9733,0.9768,0.9771,0.9782,0.982,0.9791,0.9807,0.9782,0.9767,0.9809,0.9802,0.9815,0.9826,0.9802,0.9878,0.9861,0.9825,0.9769,0.9861,0.9894,0.9907,0.9723,0.9721,0.972,0.9719,0,0,0.9858,0.9843,0.9857,0.9858,0.9852,0.9871,0.9908,0.9921,0.9935,0.9939,0.9968,0.9998,0.9965,0.997,0.9946,0.9976,1.0061,0.9936,0.9935,0.9959,1.0145,1.0171,1.0187,1.0038,1.0041,1.0043,1.0145,0,0.9957,1.0017,0.9988,1.0052,1.0076,1.0028,1.0059,1.0059,1.0047,1.0065,1.0052,1.0073,1.0028,1.0031,1.0059,1.0045,1.0098,1.0037,1.0065,1.0066,1.0066,1.0204,1.0232,1.0328,1.0157,1.0159,1.0161,0,1.008,1.009,1.0157,1.0147,1.0156,1.0185,1.0195,1.0214,1.0214,1.0202,1.021,1.0179,1.0214,1.0161,1.021,1.0169,1.0179,1.0175,1.0178,1.0178,1.0118,1.0208,1.0358,1.0372,1.0181,1.0179,1.0178,0,1.0184,1.0214,1.0257,1.026,1.025,1.0272,1.0269,1.0265,1.0276,1.0285,1.0292,1.0306,1.0313,1.0325,1.0299,1.0263,1.0352,1.0296,1.0343,1.0344,1.0363,1.0362,1.0516,1.0371,1.0371,1.0371,1.0371,0,1.0297,1.0339,1.0303,1.033,1.0377,1.0344,1.0391,1.0383,1.0381,1.0405,1.0365,1.0389,1.0354,1.0375,1.0356,1.0399,1.0403,1.0395,1.0389,1.0398,1.0399,1.0403,1.0395,1.0375,1.0374,1.0373,1.0372,0,1.0419,1.0397,1.0441,1.0429,1.0427,1.0462,1.0451,1.0476,1.0461,1.0493,1.0499,1.0477,1.05,1.0476,1.0497,1.0483,1.0542,1.0527,1.0542,1.0537,1.0586,1.0581,1.0747,1.0767,1.0611,1.0612,1.0614,0,1.0492,1.0523,1.0515,1.0529,1.0528,1.0551,1.0562,1.0531,1.0544,1.0547,1.0572,1.0592,1.0605,1.0645,1.063,1.0647,1.0631,1.0688,1.0633,1.0641,1.0631,1.0629,1.0632,1.0699,1.0701,1.0702,1.0703,0,1.0623,1.0611,1.0628,1.0642,1.0656,1.0666,1.0672,1.0686,1.0654,1.0671,1.0694,1.0705,1.0728,1.0748,1.0761,1.0758,1.0726,1.0721,1.0733,1.0742,1.0749,1.0745,1.0571,1.0717,1.0716,1.0715,1.0714,1.0713,1.0722,1.0748,1.0747,1.0768,1.077,1.0777,1.08,1.0789,1.0808,1.0823,1.0805,1.0833,1.0834,1.0847,1.0849,1.0871,1.0847,1.0864,1.0868,1.0873,1.0879,1.0747,1.0874,1.0873,1.0873,1.0872,1.0872,0,1.0851,1.0849,1.0868,1.0879,1.0895,1.0865,1.0871,1.0887,1.0913,1.0916,1.0931,1.0958,1.0978,1.0967,1.0984,1.1004,1.099,1.101,1.1007,1.1007,1.09,1.0888,1.1021,1.1021,1.1021,1.1021,1.1021,1.1021,1.092,1.0963,1.0951,1.0995,1.0992,1.102,1.1026,1.1033,1.1036,1.1068,1.1085,1.1077,1.1075,1.1092,1.1109,1.1105,1.1113,1.1138,1.1129,1.1029,1.1014,1.1,1.0989,1.114,1.114,1.1233,1.1234,1.1235]}]]